Stations météo

réclame
Mon MeteoGroup
Greifswald, Allemagne (10184): Température de l'air & dewpoint: 10.07.2018 00:00:00 - 16.07.2018 00:00:00 (CEST)Greifswald, Allemagne (10184): Température de l'air 5cm & Température de l'air -5cm: 10.07.2018 00:00:00 - 16.07.2018 00:00:00 (CEST)Greifswald, Allemagne (10184): Température de l'air -20cm & Température de l'air -100cm: 10.07.2018 00:00:00 - 16.07.2018 00:00:00 (CEST)Greifswald, Allemagne (10184): Vitesse du vent & gusts: 10.07.2018 00:00:00 - 16.07.2018 00:00:00 (CEST)Greifswald, Allemagne (10184): Direction du vent: 10.07.2018 00:00:00 - 16.07.2018 00:00:00 (CEST)Greifswald, Allemagne (10184): reduced air pressure: 10.07.2018 00:00:00 - 16.07.2018 00:00:00 (CEST)Greifswald, Allemagne (10184): visibility: 10.07.2018 00:00:00 - 16.07.2018 00:00:00 (CEST)Greifswald, Allemagne (10184): Ensoleillement: 10.07.2018 00:00:00 - 16.07.2018 00:00:00 (CEST)Greifswald, Allemagne (10184): Quantités de précipitations: 10.07.2018 00:00:00 - 16.07.2018 00:00:00 (CEST)
Date & Time tt [°C] td [°C] tt 5cm [°C] tt -5cm [°C] tt -20cm [°C] tt -100cm [°C] ff [km/h] ff [knt] fx [km/h] fx [knt] dd ppp [hPa] vv [km] sd [min] rr [mm]
16.07.2018 00:00:00 15,2 14,0 13,3 19,5 22,3 18,4 2 1 4 2 SSW 1016,7 15 0 0,0
15.07.2018 23:00:00 15,9 14,2 13,7 20,6 22,8 18,4 0 0 7 4 N 1016,7 30 0 0,0
15.07.2018 22:00:00 17,7 14,2 14,9 22,0 23,3 18,4 6 3 9 5 WNW 1016,6 45 1 0,0
15.07.2018 21:00:00 20,0 13,9 18,3 23,8 23,7 18,4 6 3 18 10 NNW 1016,4 45 60 0,0
15.07.2018 20:00:00 21,3 13,5 22,1 26,1 23,8 18,5 10 6 23 12 NNW 1016,3 45 60 0,0
15.07.2018 19:00:00 21,9 13,8 24,1 27,8 23,7 18,5 14 8 26 14 N 1016,5 35 59 0,0
15.07.2018 18:00:00 22,4 13,8 25,1 29,1 23,3 18,5 15 8 23 13 NNW 1016,7 25 60 0,0
15.07.2018 17:00:00 21,5 13,1 25,3 29,5 22,7 18,5 13 7 24 13 NW 1017,1 30 60 0,0
15.07.2018 16:00:00 21,0 12,6 25,3 28,9 22,0 18,5 13 7 30 16 NW 1017,6 30 59 0,0
15.07.2018 15:00:00 20,1 13,9 25,4 27,8 21,3 18,5 18 10 29 15 N 1017,9 30 51 0,0
15.07.2018 14:00:00 20,4 14,3 24,7 26,7 20,5 18,5 18 10 31 17 N 1018,0 25 59 0,0
15.07.2018 13:00:00 20,4 14,4 25,3 24,8 19,7 18,5 21 11 34 18 N 1018,1 25 43 0,0
15.07.2018 12:00:00 20,9 12,5 24,4 23,9 18,9 18,5 13 7 26 14 N 1018,2 25 56 0,0
15.07.2018 11:00:00 20,1 11,7 22,2 21,2 18,3 18,5 12 7 24 13 NNW 1018,1 35 49 0,0
15.07.2018 10:00:00 19,0 12,8 20,7 18,6 18,0 18,5 13 7 23 12 NW 1018,0 37 13 0,0
15.07.2018 09:00:00 18,0 14,2 18,2 17,5 17,7 18,5 9 5 21 11 NW 1017,9 25 34 0,0
15.07.2018 08:00:00 17,0 14,0 19,4 16,3 17,6 18,5 10 5 16 8 W 1017,7 19 60 0,0
15.07.2018 07:00:00 14,4 11,9 15,6 14,8 17,8 18,5 8 4 13 7 W 1017,7 17 60 0,0
15.07.2018 06:00:00 12,4 11,2 11,5 14,2 18,0 18,5 8 4 11 6 WSW 1017,6 15 16 0,0
15.07.2018 05:00:00 12,2 10,9 11,0 14,4 18,4 18,5 6 3 13 7 WSW 1017,5 18 0 0,0
15.07.2018 04:00:00 12,5 10,9 11,2 14,7 18,7 18,5 9 5 15 8 WSW 1017,4 22 0 0,0
15.07.2018 03:00:00 12,8 10,9 11,3 15,2 19,1 18,5 8 4 11 6 SW 1017,6 25 0 0,0
15.07.2018 02:00:00 13,2 10,9 11,9 15,6 19,5 18,5 8 4 11 6 WSW 1017,8 30 0 0,0
15.07.2018 01:00:00 13,4 11,0 11,0 16,2 19,9 18,5 5 3 9 5 WSW 1018,0 30 0 0,0
15.07.2018 00:00:00 13,7 11,0 11,2 16,8 20,3 18,5 5 3 10 5 WSW 1018,1 25 0 0,0
14.07.2018 23:00:00 14,8 11,1 12,1 17,5 20,8 18,5 5 3 11 6 W 1018,2 40 0 0,0
14.07.2018 22:00:00 15,9 10,5 13,6 18,4 21,2 18,5 7 4 21 12 W 1018,4 45 2 0,0
14.07.2018 21:00:00 17,2 10,1 15,9 19,7 21,5 18,5 13 7 27 15 WNW 1018,2 50 59 0,0
14.07.2018 20:00:00 17,9 10,5 18,1 21,2 21,7 18,5 14 8 34 18 WNW 1018,1 50 39 0,0
14.07.2018 19:00:00 18,9 10,5 20,2 22,5 21,6 18,5 23 12 36 19 W 1018,3 40 53 0,0
14.07.2018 18:00:00 19,5 11,0 21,7 22,5 21,6 18,5 22 12 35 19 WNW 1018,1 32 25 0,0
14.07.2018 17:00:00 18,5 10,9 20,4 22,6 21,4 18,5 18 10 39 21 WNW 1018,5 38 6 0,0
14.07.2018 16:00:00 18,4 11,3 20,6 23,2 21,1 18,5 20 11 36 20 WNW 1018,9 30 18 0,0
14.07.2018 15:00:00 18,8 11,7 21,8 22,6 20,9 18,5 21 11 32 18 WNW 1019,1 32 5 0,0
14.07.2018 14:00:00 18,2 11,5 20,6 22,1 20,6 18,5 19 10 33 18 WNW 1019,5 38 0 0,0
14.07.2018 13:00:00 18,3 12,1 21,2 22,3 20,3 18,5 19 11 35 19 W 1019,5 27 8 0,0
14.07.2018 12:00:00 17,8 12,2 20,5 21,8 19,8 18,5 18 10 34 18 NW 1019,5 19 22 0,0
14.07.2018 11:00:00 17,7 12,0 20,7 20,8 19,4 18,5 20 11 37 20 W 1019,3 18 55 0,0
14.07.2018 10:00:00 16,7 11,9 19,6 19,0 19,3 18,5 19 10 30 16 W 1019,2 21 3 0,0
14.07.2018 09:00:00 16,1 12,6 16,8 18,2 19,3 18,5 16 9 30 16 WNW 1018,9 17 0 0,0
14.07.2018 08:00:00 16,4 13,6 16,9 17,7 19,3 18,5 16 9 27 15 WNW 1018,4 14 0 0,0
14.07.2018 07:00:00 16,1 13,9 16,3 17,1 19,5 18,5 11 6 21 12 WNW 1018,2 15 0 0,0
14.07.2018 06:00:00 15,2 13,6 14,4 16,6 19,8 18,5 13 7 19 10 W 1017,9 12 0 0,0
14.07.2018 05:00:00 15,6 13,8 14,7 16,9 20,2 18,5 14 8 20 11 W 1017,6 15 0 0,0
14.07.2018 04:00:00 16,0 14,2 15,0 17,3 20,5 18,5 14 7 19 10 W 1017,6 15 0 0,0
14.07.2018 03:00:00 16,4 14,5 15,4 17,8 20,9 18,5 11 6 19 11 W 1017,5 15 0 0,0
14.07.2018 02:00:00 16,9 14,6 15,9 18,2 21,3 18,5 11 6 19 10 W 1017,5 18 0 0,0
14.07.2018 01:00:00 17,5 14,5 16,4 18,8 21,8 18,5 13 7 20 11 W 1017,5 20 0 0,0
14.07.2018 00:00:00 18,4 14,5 17,1 19,4 22,3 18,5 13 7 21 12 W 1017,2 25 0 0,0
13.07.2018 23:00:00 19,8 13,6 18,4 20,2 22,8 18,6 13 7 18 10 W 1017,1 28 0 0,0
13.07.2018 22:00:00 21,1 12,5 19,3 21,3 23,3 18,6 11 6 22 12 W 1016,9 35 1 0,0
13.07.2018 21:00:00 22,5 11,7 20,8 22,9 23,7 18,6 14 8 25 14 W 1016,5 38 54 0,0
13.07.2018 20:00:00 24,5 13,0 24,1 25,0 23,8 18,6 16 8 27 15 WNW 1016,2 35 60 0,0
13.07.2018 19:00:00 25,6 12,8 26,3 26,3 23,8 18,6 16 9 27 15 WNW 1015,9 30 60 0,0
13.07.2018 18:00:00 26,0 14,3 27,9 26,6 23,6 18,6 16 9 34 18 NNW 1016,0 30 45 0,0
13.07.2018 17:00:00 25,9 14,4 28,0 27,7 23,3 18,6 22 12 31 17 N 1016,4 35 56 0,0
13.07.2018 16:00:00 25,5 13,3 28,7 28,1 22,7 18,6 18 10 38 20 NNW 1016,3 25 60 0,0
13.07.2018 15:00:00 25,7 15,4 29,3 27,6 22,1 18,6 17 9 33 18 NW 1016,2 26 57 0,0
13.07.2018 14:00:00 25,4 16,4 29,9 26,9 21,4 18,6 18 10 29 16 N 1016,1 23 45 0,0
13.07.2018 13:00:00 24,0 16,0 26,2 26,5 20,6 18,6 14 7 26 14 NW 1016,5 20 50 0,0
13.07.2018 12:00:00 23,4 16,9 27,5 24,5 19,9 18,6 14 7 29 16 WNW 1016,4 15 46 0,0
13.07.2018 11:00:00 21,6 16,7 25,2 22,6 19,2 18,7 16 8 27 14 W 1016,2 15 30 0,0
13.07.2018 10:00:00 20,3 16,5 22,1 20,9 18,7 18,7 14 8 26 14 WNW 1016,0 13 33 0,0
13.07.2018 09:00:00 19,7 16,7 22,7 19,3 18,4 18,7 18 10 27 15 WNW 1015,9 15 60 0,0
13.07.2018 08:00:00 18,4 16,2 20,1 17,5 18,3 18,7 17 9 24 13 WNW 1015,6 15 40 0,0
13.07.2018 07:00:00 16,6 14,8 15,7 16,4 18,4 18,7 11 6 15 8 W 1015,3 16 29 0,0
13.07.2018 06:00:00 15,6 14,2 14,3 16,1 18,7 18,7 8 4 15 8 W 1015,0 10 15 0,0
13.07.2018 05:00:00 15,4 13,9 14,1 16,4 18,9 18,7 9 5 15 8 W 1014,6 12 0 0,0
13.07.2018 04:00:00 15,7 14,1 14,5 16,8 19,2 18,7 6 3 10 6 WSW 1014,6 10 0 0,0
13.07.2018 03:00:00 15,5 14,6 14,3 16,9 19,5 18,7 6 3 11 6 WSW 1014,9 6 0 0,0
13.07.2018 02:00:00 16,5 15,2 15,0 17,4 19,9 18,7 8 4 12 7 W 1015,0 10 0 0,0
13.07.2018 01:00:00 16,2 15,7 14,7 18,1 20,2 18,7 4 2 9 5 SSW 1015,0 8 0 0,0
13.07.2018 00:00:00 17,2 16,2 16,0 18,9 20,5 18,7 7 4 10 5 WNW 1015,5 10 0 0,0
12.07.2018 23:00:00 17,8 16,5 16,6 19,5 20,7 18,8 3 2 8 5 W 1015,2 12 0 0,0
12.07.2018 22:00:00 18,3 16,9 17,8 20,4 20,9 18,8 3 2 6 4 ESE 1015,1 15 0 0,0
12.07.2018 21:00:00 19,0 16,8 18,7 20,9 21,1 18,8 4 2 6 4 NNE 1014,6 16 22 0,0
12.07.2018 20:00:00 19,0 16,9 19,0 21,7 21,1 18,8 4 2 16 9 NE 1014,2 18 0 0,0
12.07.2018 19:00:00 19,6 16,5 20,1 22,6 21,0 18,8 9 5 18 10 NE 1014,1 18 0 0,0
12.07.2018 18:00:00 20,0 16,7 21,1 22,8 20,7 18,8 11 6 24 13 NNE 1014,0 18 1 0,0
12.07.2018 17:00:00 20,0 16,3 21,2 22,6 20,4 18,8 12 7 24 13 NNE 1014,1 15 0 0,0
12.07.2018 16:00:00 19,6 15,9 19,9 22,2 20,1 18,8 17 9 28 15 N 1014,1 15 0 0,0
12.07.2018 15:00:00 19,4 15,8 20,0 21,8 19,8 18,8 19 11 29 15 N 1014,1 11 0 0,0
12.07.2018 14:00:00 19,0 16,0 18,9 20,9 19,5 18,8 18 10 24 13 N 1014,0 12 0 0,1
12.07.2018 13:00:00 18,8 16,1 18,5 20,3 19,2 18,8 15 8 26 14 NNE 1013,8 11 0 0,2
12.07.2018 12:00:00 18,0 15,8 17,8 19,3 19,1 18,9 14 8 28 15 N 1013,7 10 0 0,7
12.07.2018 11:00:00 17,5 15,5 17,3 18,7 19,1 18,9 16 9 31 17 N 1013,6 6 0 0,5
12.07.2018 10:00:00 18,4 14,5 17,7 18,7 19,0 18,9 16 9 30 16 NNE 1013,6 35 0 0,0
12.07.2018 09:00:00 18,6 14,7 17,7 18,6 19,0 18,9 15 8 29 16 NNE 1013,4 30 0 0,0
12.07.2018 08:00:00 18,3 14,9 17,2 18,1 19,0 18,9 19 10 33 18 NE 1013,3 35 0 0,0
12.07.2018 07:00:00 17,9 14,2 16,5 17,8 19,1 18,9 16 8 37 20 NNE 1013,4 35 0 0,0
12.07.2018 06:00:00 18,0 15,8 17,0 18,0 19,2 18,9 12 7 24 13 NNE 1013,3 19 0 0,0
12.07.2018 05:00:00 17,9 16,6 17,3 18,2 19,3 18,9 13 7 24 13 N 1013,4 12 0 0,0
12.07.2018 04:00:00 18,0 16,7 17,4 18,3 19,4 18,9 11 6 23 12 N 1013,5 12 0 0,0
12.07.2018 03:00:00 17,9 16,8 17,4 18,3 19,5 18,9 11 6 16 9 NNE 1014,0 9 0 0,0
12.07.2018 02:00:00 18,1 17,1 17,6 18,5 19,6 18,9 8 4 17 9 NNE 1014,4 9 0 0,0
12.07.2018 01:00:00 18,2 17,3 17,6 18,6 19,7 18,9 11 6 20 11 NE 1014,8 9 0 0,0
12.07.2018 00:00:00 18,0 17,1 17,6 18,6 19,8 19,0 11 6 17 9 NE 1015,0 7 0 0,0
11.07.2018 23:00:00 17,4 16,7 17,0 18,7 20,0 19,0 6 3 8 4 NNW 1015,2 7 0 0,0
11.07.2018 22:00:00 16,9 16,2 16,4 18,9 20,2 19,0 4 2 14 7 N 1015,1 9 0 0,0
11.07.2018 21:00:00 16,5 15,7 15,3 19,4 20,3 19,0 9 5 14 8 NNE 1014,9 8 0 0,0
11.07.2018 20:00:00 17,8 15,9 17,1 20,4 20,4 19,0 7 4 12 6 NNE 1014,9 20 0 0,0
11.07.2018 19:00:00 18,4 16,1 17,9 21,1 20,3 19,0 7 4 18 10 NE 1014,9 20 0 0,0
11.07.2018 18:00:00 18,4 15,9 18,3 21,2 20,1 19,0 10 6 23 12 ENE 1015,2 26 0 0,0
11.07.2018 17:00:00 18,5 16,3 18,3 21,0 19,9 19,0 10 5 19 10 NE 1015,1 22 0 0,1
11.07.2018 16:00:00 18,5 16,9 18,6 20,9 19,6 19,0 10 5 19 10 ENE 1015,1 11 0 0,1
11.07.2018 15:00:00 18,5 17,5 18,8 20,1 19,4 19,0 10 6 18 10 ENE 1015,4 8 0 0,6
11.07.2018 14:00:00 17,9 17,0 17,9 19,3 19,3 19,0 5 3 19 10 E 1015,3 4,0 0 2,7
11.07.2018 13:00:00 17,9 16,9 17,8 19,2 19,2 19,0 15 8 26 14 ENE 1015,4 5 0 1,9
11.07.2018 12:00:00 17,8 16,7 17,6 18,8 19,1 19,0 16 9 33 18 ENE 1015,2 5 0 2,2
11.07.2018 11:00:00 17,5 16,9 17,4 18,1 19,2 19,0 16 9 35 19 ENE 1015,3 3,0 0 5,0
11.07.2018 10:00:00 17,4 16,7 17,1 18,0 19,3 19,0 22 12 35 19 ENE 1015,3 1,8 0 3,7
11.07.2018 09:00:00 17,1 16,5 17,0 17,8 19,5 19,0 11 6 24 13 ENE 1015,3 2,6 0 4,7
11.07.2018 08:00:00 16,4 15,8 16,2 17,8 19,8 19,0 13 7 32 18 ENE 1015,1 2,5 0 8,1
11.07.2018 07:00:00 16,7 16,1 16,4 18,1 20,0 19,0 9 5 29 16 E 1015,2 1,4 0 5,6
11.07.2018 06:00:00 17,6 16,4 17,1 18,4 20,1 19,0 21 11 38 20 ENE 1015,1 14 0 0,2
11.07.2018 05:00:00 17,2 16,5 16,8 18,7 20,3 19,0 8 4 17 9 ENE 1015,3 5 0 4,0
11.07.2018 04:00:00 18,2 16,4 17,9 18,9 20,4 19,0 14 7 32 17 ENE 1015,4 18 0 0,0
11.07.2018 03:00:00 18,1 16,3 17,4 19,0 20,6 19,1 21 11 34 18 ENE 1015,4 17 0 0,0
11.07.2018 02:00:00 18,1 16,3 17,5 19,3 20,8 19,1 14 7 31 17 ENE 1016,1 19 0 0,0
11.07.2018 01:00:00 18,2 16,4 18,0 19,5 21,0 19,1 17 9 29 16 ENE 1016,4 16 0 0,0
11.07.2018 00:00:00 18,3 16,7 17,8 19,7 21,2 19,1 16 8 26 14 ENE 1016,5 16 0 0,0
10.07.2018 23:00:00 17,8 16,7 17,4 20,0 21,4 19,1 7 4 16 9 ENE 1016,7 11 0 0,0
10.07.2018 22:00:00 18,1 16,5 17,4 20,7 21,6 19,1 10 5 17 9 ENE 1016,6 16 0 0,0
10.07.2018 21:00:00 18,1 16,0 17,7 21,6 21,7 19,1 5 3 9 5 NNE 1016,6 22 0 0,0
10.07.2018 20:00:00 18,3 15,2 18,9 22,4 21,6 19,1 4 2 11 6 NNE 1016,5 33 23 0,0
10.07.2018 19:00:00 17,7 14,9 18,5 22,0 21,6 19,1 6 3 18 10 NNW 1016,4 34 1 0,0
10.07.2018 18:00:00 17,0 14,4 17,8 22,0 21,6 19,1 11 6 21 11 NNW 1016,6 35 0 0,0
10.07.2018 17:00:00 16,9 13,6 17,8 22,5 21,4 19,1 12 6 21 12 NNW 1016,6 30 0 0,0
10.07.2018 16:00:00 16,7 13,0 17,5 22,9 21,1 19,1 12 7 18 10 NNW 1016,9 30 19 0,0
10.07.2018 15:00:00 15,2 12,9 16,9 21,2 21,0 19,1 10 5 14 8 W 1017,2 25 0 0,1
10.07.2018 14:00:00 13,9 11,8 14,5 20,3 21,0 19,1 3 2 13 7 WNW 1017,6 3,7 0 1,5
10.07.2018 13:00:00 14,7 11,1 14,6 21,5 20,9 19,1 9 5 22 12 ENE 1017,4 15 0 0,0
10.07.2018 12:00:00 16,3 10,8 17,3 22,0 20,6 19,1 9 5 20 11 ENE 1017,0 35 0 0,0
10.07.2018 11:00:00 16,7 10,3 20,3 22,1 20,2 19,1 10 5 20 11 NE 1016,8 30 10 0,0
10.07.2018 10:00:00 15,0 9,4 16,9 19,6 20,1 19,1 2 1 7 4 E 1017,1 32 0 0,0
10.07.2018 09:00:00 14,1 8,6 15,4 18,6 20,1 19,1 3 2 8 4 WNW 1016,6 30 0 0,0
10.07.2018 08:00:00 13,9 8,8 14,6 18,0 20,2 19,1 3 2 8 4 NW 1016,2 32 0 0,0
10.07.2018 07:00:00 13,3 8,3 13,4 17,6 20,5 19,1 6 3 12 6 WSW 1015,9 32 0 0,0
10.07.2018 06:00:00 13,1 8,5 12,6 17,7 20,7 19,0 7 4 14 7 WSW 1015,8 36 0 0,0
10.07.2018 05:00:00 13,6 8,3 13,3 18,1 21,0 19,0 9 5 16 9 WSW 1015,8 32 0 0,0
10.07.2018 04:00:00 14,0 8,8 13,6 18,4 21,3 19,0 6 3 11 6 SW 1015,7 32 0 0,0
10.07.2018 03:00:00 14,2 8,7 13,6 18,7 21,6 19,0 8 4 13 7 SW 1015,9 30 0 0,0
10.07.2018 02:00:00 14,5 8,7 14,2 19,2 21,9 19,0 8 5 15 8 WSW 1015,9 33 0 0,0
10.07.2018 01:00:00 14,7 9,3 14,6 19,5 22,2 19,0 5 3 10 6 S 1016,1 32 0 0,0
10.07.2018 00:00:00 15,1 9,2 14,2 19,9 22,6 19,0 5 3 16 9 WSW 1015,9 31 0 0,0

tt = Température de l'air
td = dewpoint
tt 5cm = Température de l'air 5cm
tt -5cm = Température de l'air -5cm
tt -20cm = Température de l'air -20cm
tt -100cm = Température de l'air -100cm
ff = Vitesse du vent
fx = gusts
dd = Direction du vent
ppp = reduced air pressure
vv = visibility
sd = Ensoleillement
rr = Quantités de précipitations

stations d'obs. à proximité